Weather History for Columbia / Mount Pleasant, TN

Change the Weather History Date:

Wednesday, September 18, 2013

  Actual Average (KBNA) Record (KBNA)
Temperature  
Mean Temperature 76 °F 71 °F  
Max Temperature 84 °F 82 °F 99 °F (1953)
Min Temperature 68 °F 60 °F 43 °F (1903)
Degree Days  
Heating Degree Days 0 1  
Month to date heating degree days 3  
Since 1 July heating degree days 3  
Cooling Degree Days 11 6  
Month to date cooling degree days 163  
Year to date cooling degree days 1537  
Growing Degree Days 26 (Base 50)    
Moisture  
Dew Point 72 °F    
Average Humidity 91    
Maximum Humidity 100    
Minimum Humidity 70    
Precipitation  
Precipitation 0.00 in 0.11 in 3.12 in (1887)
Month to date precipitation 1.98  
Year to date precipitation 34.23  
Snow  
Snow 0.00 in 0.00 in - ()
Month to date snowfall 0.0  
Since 1 July snowfall 0.0  
Since 1 September snowfall 0.0  
Snow Depth -    
Sea Level Pressure  
Sea Level Pressure 30.13 in    
Wind  
Wind Speed 5 mph (South)    
Max Wind Speed 10 mph    
Max Gust Speed -    
Visibility 10 miles    
Events      
T = Trace of Precipitation, MM = Missing Value Source: NWS Daily Summary

Daily Weather History Graph

Daily Weather History Graph

Search for Another Location

Airport:

Trip Planner

Search our weather history database for the weather conditions in past years. The results will help you decide how hot, cold, wet, or windy it might be!

Date:

Astronomy

Sep. 18, 2013 Rise Set
Actual Time 6:33 AM CDT 6:51 PM CDT
Civil Twilight 6:08 AM CDT 7:16 PM CDT
Nautical Twilight 5:38 AM CDT 7:46 PM CDT
Astronomical Twilight 5:08 AM CDT 8:16 PM CDT
Moon 6:14 PM CDT 5:36 AM CDT
Length of Visible Light 13h 08m
Length of Day
12h 17m
Waxing Gibbous, 99% of the Moon is Illuminated
Sep 18
Waxing Gibbous
Sep 19
Full
Sep 26
Last Quarter
Oct 4
New
Oct 11
First Quarter

Hourly Weather History & Observations

Time (CDT) Temp. Heat Index Dew Point Humidity Pressure Visibility Wind Dir Wind Speed Gust Speed Precip Events Conditions
12:35 AM - - - N/A% 30.12 in 9.0 mi South 4.6 mph - N/A   Unknown
12:55 AM - - - N/A% 30.12 in 10.0 mi South 5.8 mph - N/A   Unknown
1:15 AM - - - N/A% 30.12 in 10.0 mi South 5.8 mph - N/A   Unknown
1:35 AM - - - N/A% 30.12 in 10.0 mi South 5.8 mph - N/A   Unknown
1:55 AM - - - N/A% 30.12 in 10.0 mi South 5.8 mph - N/A   Unknown
2:15 AM - - - N/A% 30.12 in 10.0 mi South 3.5 mph - N/A   Clear
2:35 AM - - - N/A% 30.12 in 10.0 mi South 4.6 mph - N/A   Clear
2:55 AM - - - N/A% 30.12 in 10.0 mi Variable 4.6 mph - N/A   Clear
3:15 AM - - - N/A% 30.12 in 10.0 mi South 4.6 mph - N/A   Clear
3:35 AM - - - N/A% 30.12 in 10.0 mi South 4.6 mph - N/A   Clear
3:55 AM 69.8 °F - 69.8 °F 100% 30.13 in 10.0 mi South 5.8 mph - N/A   Clear
4:15 AM 68.0 °F - 68.0 °F 100% 30.13 in 10.0 mi South 5.8 mph - N/A   Clear
4:35 AM 68.0 °F - 68.0 °F 100% 30.13 in 10.0 mi South 5.8 mph - N/A   Clear
4:55 AM 68.0 °F - 68.0 °F 100% 30.13 in 10.0 mi South 4.6 mph - N/A   Clear
5:15 AM 68.0 °F - 68.0 °F 100% 30.14 in 10.0 mi South 5.8 mph - N/A   Clear
5:35 AM 68.0 °F - 68.0 °F 100% 30.14 in 10.0 mi Variable 4.6 mph - N/A   Clear
5:55 AM 68.0 °F - 68.0 °F 100% 30.14 in 10.0 mi South 4.6 mph - N/A   Clear
6:15 AM 68.0 °F - 68.0 °F 100% 30.14 in 10.0 mi South 3.5 mph - N/A   Clear
6:35 AM 68.0 °F - 68.0 °F 100% 30.15 in 10.0 mi South 3.5 mph - N/A   Clear
6:55 AM 68.0 °F - 68.0 °F 100% 30.15 in 10.0 mi South 3.5 mph - N/A   Clear
7:15 AM 68.0 °F - 68.0 °F 100% 30.16 in 10.0 mi South 4.6 mph - N/A   Clear
7:35 AM 68.0 °F - 68.0 °F 100% 30.16 in 10.0 mi Calm Calm - N/A   Clear
7:55 AM 69.8 °F - 69.8 °F 100% 30.17 in 10.0 mi South 4.6 mph - N/A   Clear
8:15 AM 69.8 °F - 69.8 °F 100% 30.17 in 10.0 mi SSE 3.5 mph - N/A   Clear
8:35 AM 71.6 °F - 71.6 °F 100% 30.17 in 10.0 mi South 5.8 mph - N/A   Clear
8:55 AM 73.4 °F - 73.4 °F 100% 30.17 in 10.0 mi Variable 4.6 mph - N/A   Clear
9:15 AM 73.4 °F - 73.4 °F 100% 30.18 in 10.0 mi South 8.1 mph - N/A   Clear
9:35 AM 73.4 °F - 73.4 °F 100% 30.18 in 8.0 mi South 9.2 mph - N/A   Unknown
9:55 AM 73.4 °F - 73.4 °F 100% 30.18 in 8.0 mi South 8.1 mph - N/A   Unknown
10:15 AM 73.4 °F - 73.4 °F 100% 30.18 in 6.0 mi South 8.1 mph - N/A   Unknown
10:35 AM 75.2 °F - 73.4 °F 94% 30.17 in 6.0 mi Variable 5.8 mph - N/A   Overcast
10:55 AM 77.0 °F - 73.4 °F 89% 30.17 in 10.0 mi South 9.2 mph - N/A   Overcast
11:15 AM 77.0 °F - 73.4 °F 89% 30.17 in 7.0 mi South 9.2 mph - N/A   Overcast
11:35 AM 77.0 °F - 73.4 °F 89% 30.17 in 5.0 mi SSE 9.2 mph - N/A   Overcast
11:55 AM 78.8 °F - 73.4 °F 83% 30.16 in 8.0 mi South 8.1 mph - N/A   Overcast
12:15 PM 78.8 °F - 73.4 °F 83% 30.16 in 10.0 mi South 9.2 mph - N/A   Overcast
12:35 PM 78.8 °F - 73.4 °F 83% 30.15 in 10.0 mi South 8.1 mph - N/A   Overcast
12:55 PM 80.6 °F 85.4 °F 73.4 °F 79% 30.14 in 6.0 mi SSW 6.9 mph - N/A   Overcast
1:15 PM 80.6 °F 85.4 °F 73.4 °F 79% 30.14 in 10.0 mi South 6.9 mph - N/A   Overcast
1:35 PM 80.6 °F 85.4 °F 73.4 °F 79% 30.13 in 10.0 mi SSW 8.1 mph - N/A   Overcast
1:55 PM 82.4 °F 88.2 °F 73.4 °F 74% 30.12 in 10.0 mi SSW 10.4 mph - N/A   Overcast
2:15 PM 82.4 °F 88.2 °F 73.4 °F 74% 30.12 in 10.0 mi South 6.9 mph - N/A   Mostly Cloudy
2:35 PM 84.2 °F 90.9 °F 73.4 °F 70% 30.11 in 10.0 mi SSW 6.9 mph - N/A   Scattered Clouds
2:55 PM 82.4 °F 88.2 °F 73.4 °F 74% 30.10 in 10.0 mi ESE 3.5 mph - N/A   Scattered Clouds
3:15 PM 82.4 °F 88.2 °F 73.4 °F 74% 30.10 in 10.0 mi Variable 5.8 mph - N/A   Scattered Clouds
3:35 PM 82.4 °F 88.2 °F 73.4 °F 74% 30.09 in 10.0 mi SSW 3.5 mph - N/A   Mostly Cloudy
3:55 PM 82.4 °F 88.2 °F 73.4 °F 74% 30.09 in 10.0 mi South 5.8 mph - N/A   Scattered Clouds
4:15 PM 82.4 °F 87.2 °F 71.6 °F 70% 30.09 in 10.0 mi South 6.9 mph - N/A   Clear
4:35 PM 82.4 °F 88.2 °F 73.4 °F 74% 30.08 in 10.0 mi SSE 6.9 mph - N/A   Clear
4:55 PM 82.4 °F 88.2 °F 73.4 °F 74% 30.08 in 10.0 mi South 5.8 mph - N/A   Partly Cloudy
5:15 PM 82.4 °F 88.2 °F 73.4 °F 74% 30.08 in 10.0 mi SSE 6.9 mph - N/A   Partly Cloudy
5:35 PM 82.4 °F 88.2 °F 73.4 °F 74% 30.08 in 10.0 mi South 4.6 mph - N/A   Clear
5:55 PM 80.6 °F 86.2 °F 75.2 °F 84% 30.08 in 10.0 mi SSE 5.8 mph - N/A   Clear
6:15 PM 80.6 °F 86.2 °F 75.2 °F 84% 30.07 in 10.0 mi SSE 3.5 mph - N/A   Clear
6:35 PM 78.8 °F - 78.8 °F 100% 30.08 in 10.0 mi SSE 3.5 mph - N/A   Clear
6:55 PM 75.2 °F - 75.2 °F 100% 30.08 in 10.0 mi SSE 3.5 mph - N/A   Clear
7:15 PM 75.2 °F - 75.2 °F 100% 30.08 in 10.0 mi SSE 3.5 mph - N/A   Clear
8:35 PM 73.4 °F - 73.4 °F 100% 30.10 in 10.0 mi SE 3.5 mph - N/A   Clear
8:55 PM 71.6 °F - 71.6 °F 100% 30.11 in 10.0 mi Calm Calm - N/A   Clear
9:15 PM 71.6 °F - 71.6 °F 100% 30.10 in 10.0 mi Calm Calm - N/A   Clear
9:35 PM 71.6 °F - 71.6 °F 100% 30.10 in 10.0 mi Calm Calm - N/A   Unknown
9:55 PM - - - N/A% 30.10 in 10.0 mi Calm Calm - N/A   Unknown
10:15 PM 71.6 °F - 71.6 °F 100% 30.10 in 10.0 mi Calm Calm - N/A   Unknown
10:35 PM 71.6 °F - 71.6 °F 100% 30.10 in 10.0 mi SE 3.5 mph - N/A   Unknown
10:55 PM 71.6 °F - 71.6 °F 100% 30.10 in 10.0 mi Calm Calm - N/A   Unknown
11:15 PM 71.6 °F - 71.6 °F 100% 30.10 in 10.0 mi Calm Calm - N/A   Unknown
11:35 PM - - - N/A% 30.10 in 10.0 mi Calm Calm - N/A   Unknown
11:55 PM 69.8 °F - 69.8 °F 100% 30.11 in 10.0 mi Calm Calm - N/A   Clear